[[{"header":{"parameterUnit":"m.s-1","parameterCategory":1,"la1":30.2991,"la2":30.254,"lo1":-89.0895,"lo2":-89.0444,"dx":0.0017,"dy":0.0017,"nx":28,"ny":28,"refTime":"2023-01-30T15:00:00:Z","depth":0,"parameterNumber":2,"parameterNumberName":"U-component_of_WINDS"},"data":[0,0,0,0,0,0,0,0,0,0,0,0,0,0,0,0,0,0,0,0,0,0,0,0,0,0,0,0,0,0,0,0,0,0,0,0,0,0,0,0,0,0,0,0,0,0,0,0,0,0,0,0,0,0,0,0,0,0,1.4732,1.4733,0,1.4815,1.4816,1.4817,1.4842,1.4841,1.4841,1.4841,1.4924,1.4926,1.4929,0,0,0,0,0,0,0,0,0,0,0,0,0,1.4594,1.4596,1.4732,1.4733,1.4734,1.4815,1.4816,1.4817,1.4842,1.4841,1.4841,1.484,1.4923,1.4926,1.4929,0,0,0,0,0,0,0,0,0,0,0,0,0,1.4663,1.4597,1.4732,1.4756,1.4759,1.4814,1.4816,1.4817,1.4842,1.4841,1.4841,1.484,1.4922,1.4926,1.493,1.4966,0,0,1.4941,1.4943,0,0,0,0,0,0,0,0,1.4659,1.4668,1.4751,1.4755,1.4758,1.4817,1.4798,1.4867,1.4842,1.481,1.4841,1.484,1.4889,1.4895,1.4912,1.497,1.4973,1.4942,1.4944,1.4946,1.4947,0,0,0,0,0,0,0,1.4654,1.4665,1.4765,1.4753,1.4757,1.4763,1.4772,1.4811,1.4852,1.4813,1.4815,1.4825,1.489,1.4908,1.4914,1.4975,1.4942,1.4945,1.4948,1.4949,1.5067,1.5068,0,0,0,0,0,0,1.4646,1.466,1.4762,1.4767,1.4706,1.4766,1.4776,1.4799,1.4852,1.4859,1.4825,1.4826,1.4902,1.491,1.4917,1.4964,1.4946,1.4949,1.4952,1.5066,1.5067,1.5068,0,0,0,0,0,0,1.4642,1.4654,1.4759,1.4714,1.4728,1.4769,1.4794,1.4801,1.4819,1.4861,1.4868,1.4836,1.4902,1.4912,1.4954,1.4967,1.4951,1.4955,1.5065,1.5066,1.5067,1.5057,0,0,0,0,0,0,1.4638,1.4653,1.4668,1.4715,1.473,1.4794,1.4795,1.4803,1.4826,1.4827,1.4873,1.488,1.4902,1.4948,1.4958,1.4972,1.4958,1.5064,1.5066,1.5067,1.5056,1.5057,1.5059,0,0,0,0,0,1.4633,1.4661,1.4668,1.468,1.4749,1.4795,1.4804,1.4829,1.4827,1.4841,1.4868,1.4878,1.4964,1.4952,1.4963,1.4979,1.5063,1.5065,1.5067,1.5056,1.5057,1.5058,0,0,0,0,0,0,1.4614,1.4667,1.4676,1.472,1.4753,1.4799,1.4818,1.483,1.4864,1.4864,1.4893,1.4904,1.4944,1.4966,1.4951,1.5017,1.5014,1.5018,1.5001,1.5003,1.5005,1.4998,1.4961,0,0,0,0,0,1.4614,1.4647,1.4692,1.4726,1.4742,1.4777,1.4798,1.4815,1.485,1.4864,1.4894,1.4927,1.4962,1.4984,1.5018,1.5059,1.507,1.5076,1.5077,1.5078,1.5081,1.5105,1.5108,1.5074,1.5074,1.5074,0,0,1.4616,1.465,1.4668,1.4723,1.4751,1.4784,1.4789,1.4823,1.4848,1.4869,1.4911,1.4934,1.4973,1.5015,1.5035,1.5035,1.5093,1.508,1.508,1.5083,1.5107,1.511,1.5113,1.5075,1.5075,1.5075,0,0,1.4636,1.4665,1.4697,1.4724,1.4766,1.4789,1.4797,1.4842,1.4858,1.4901,1.4917,1.4947,1.5005,1.5033,1.5054,1.5086,1.5096,1.5096,1.5102,1.5125,1.5128,1.513,1.5142,1.5145,1.5099,1.5099,1.5099,0,1.4633,1.4684,1.4711,1.4745,1.4769,1.479,1.4822,1.4848,1.4898,1.4914,1.4913,1.4987,1.5015,1.5064,1.5072,1.5088,1.5098,1.5091,1.5125,1.5128,1.5131,1.5142,1.5146,1.5098,1.5098,1.5099,1.5099,0,1.4678,1.4713,1.4734,1.4783,1.4809,1.4841,1.4873,1.4896,1.4911,1.4934,1.4977,1.5012,1.5053,1.5066,1.508,1.5117,1.5116,1.512,1.5117,1.5133,1.5144,1.5149,1.5098,1.5098,1.5098,1.5098,0,0,1.4688,1.4752,1.4759,1.4782,1.483,1.4857,1.4891,1.4932,1.4951,1.4985,1.5015,1.5064,1.5068,1.5093,1.511,1.5131,1.5153,1.5132,1.5133,1.5135,1.5196,1.5193,1.5198,1.5161,1.5162,1.5162,1.5193,0,1.4714,1.4776,1.4802,1.4852,1.4885,1.4905,1.4935,1.4967,1.499,1.5021,1.5046,1.508,1.5083,1.5098,1.5119,1.5146,1.5166,1.5144,1.5188,1.5189,1.5177,1.5203,1.52,1.5227,1.5198,1.5198,1.5199,0,1.4753,1.4788,1.4842,1.4886,1.4901,1.4927,1.4967,1.4996,1.5034,1.5049,1.5076,1.5093,1.5129,1.5124,1.5175,1.5159,1.5179,1.5195,1.5196,1.5201,1.5195,1.5209,1.5237,1.5241,1.5206,1.5205,1.5205,0,1.4755,1.4816,1.4856,1.4875,1.4927,1.4945,1.4968,1.5005,1.5028,1.5063,1.5078,1.5116,1.5137,1.5167,1.5193,1.5187,1.5241,1.5238,1.5255,1.5254,1.5265,1.5264,1.5296,1.5277,1.5277,1.5277,1.5277,0,1.4782,1.4814,1.4858,1.4882,1.4918,1.4948,1.4983,1.5007,1.5039,1.5069,1.5089,1.5116,1.5149,1.518,1.5201,1.524,1.5249,1.5262,1.5267,1.5261,1.5259,1.5274,1.5272,1.5278,1.5278,1.5278,1.5277,0,1.479,1.4821,1.4866,1.4912,1.4925,1.4949,1.4989,1.5014,1.5037,1.5074,1.5085,1.5122,1.516,1.519,1.5239,1.5253,1.5294,1.5299,1.5281,1.5284,1.5298,1.5297,1.5341,1.5349,1.5325,1.5325,1.5325,0,1.4805,1.4831,1.488,1.4901,1.4924,1.4958,1.4982,1.5012,1.5036,1.5081,1.51,1.5139,1.5173,1.5232,1.5264,1.5301,1.5308,1.5321,1.5314,1.5306,1.5308,1.5307,1.5309,1.5322,1.5322,1.5322,1.5322,0,1.4829,1.4843,1.4877,1.4917,1.4945,1.4978,1.5011,1.5027,1.5063,1.5089,1.5128,1.5154,1.5205,1.5244,1.5285,1.5308,1.5321,1.5324,1.533,1.5323,1.5312,1.5318,1.5284,1.5323,1.5323,1.5323,1.5323,1.5323,1.4841,1.4865,1.4904,1.4941,1.4969,1.4999,1.5025,1.5052,1.5086,1.513,1.5145,1.5186,1.5223,1.5279,1.5303,1.5335,1.5335,1.5344,1.5346,1.5347,1.5347,1.5307,1.5342,1.5342,1.5342,1.5342,1.5342,0,1.4866,1.4892,1.4927,1.4972,1.5002,1.5012,1.5049,1.5073,1.5109,1.5142,1.5175,1.522,1.5258,1.5293,1.5332,1.5351,1.5358,1.5361,1.5359,1.5364,1.5344,1.5335,1.5354,1.5354,1.5354,1.5354,1.5354,1.5354,1.4883,1.4923,1.4942,1.4996,1.5022,1.5062,1.5082,1.511,1.5137,1.5187,1.5219,1.5242,1.5276,1.5318,1.5353,1.5363,1.5376,1.5377,1.5387,1.5367,1.5366,1.5364,1.5356,1.538,1.538,1.5406,1.5406,1.5406]},{"header":{"parameterUnit":"m.s-1","parameterCategory":1,"la1":30.2991,"la2":30.254,"lo1":-89.0895,"lo2":-89.0444,"dx":0.0017,"dy":0.0017,"nx":28,"ny":28,"refTime":"2023-01-30T15:00:00:Z","depth":0,"parameterNumber":3,"parameterNumberName":"V-component_of_WINDS"},"data":[0,0,0,0,0,0,0,0,0,0,0,0,0,0,0,0,0,0,0,0,0,0,0,0,0,0,0,0,0,0,0,0,0,0,0,0,0,0,0,0,0,0,0,0,0,0,0,0,0,0,0,0,0,0,0,0,0,0,0.4442,0.4442,0,0.4424,0.4424,0.4424,0.4455,0.4456,0.4457,0.4458,0.4434,0.4432,0.4431,0,0,0,0,0,0,0,0,0,0,0,0,0,0.4498,0.4496,0.4442,0.4442,0.4442,0.4424,0.4424,0.4424,0.4455,0.4456,0.4457,0.4459,0.4435,0.4433,0.4431,0,0,0,0,0,0,0,0,0,0,0,0,0,0.4476,0.4496,0.4442,0.4455,0.4456,0.4424,0.4424,0.4424,0.4455,0.4456,0.4458,0.4459,0.4435,0.4433,0.443,0.4383,0,0,0.4423,0.4422,0,0,0,0,0,0,0,0,0.4477,0.4474,0.4454,0.4454,0.4455,0.4444,0.4435,0.441,0.4454,0.4455,0.4458,0.446,0.4436,0.4433,0.4426,0.4382,0.4381,0.4423,0.4421,0.442,0.4419,0,0,0,0,0,0,0,0.4478,0.4475,0.4435,0.4453,0.4454,0.446,0.4459,0.443,0.4436,0.4455,0.4457,0.4455,0.4436,0.4428,0.4426,0.4381,0.4423,0.4421,0.4419,0.4418,0.4296,0.4294,0,0,0,0,0,0,0.4479,0.4476,0.4436,0.4434,0.4471,0.4458,0.4456,0.4446,0.4437,0.4437,0.4454,0.4457,0.4432,0.4429,0.4425,0.4369,0.442,0.4418,0.4416,0.4298,0.4295,0.4293,0,0,0,0,0,0,0.448,0.4475,0.4436,0.4456,0.4451,0.4455,0.4443,0.4444,0.4437,0.4436,0.4437,0.4445,0.4433,0.4429,0.4394,0.4368,0.4417,0.4415,0.43,0.4297,0.4294,0.4256,0,0,0,0,0,0,0.4482,0.4476,0.4459,0.4455,0.445,0.4407,0.4441,0.4443,0.4433,0.4437,0.4428,0.4428,0.4434,0.4397,0.4391,0.4366,0.4413,0.4302,0.4298,0.4295,0.4259,0.4252,0.4246,0,0,0,0,0,0.4484,0.4448,0.4458,0.4453,0.443,0.4405,0.4402,0.4412,0.4431,0.4413,0.4413,0.4428,0.4372,0.4393,0.4387,0.436,0.4304,0.4299,0.4296,0.4262,0.4254,0.4246,0,0,0,0,0,0,0.4447,0.4448,0.4459,0.4421,0.4413,0.4411,0.4389,0.4402,0.4387,0.4391,0.4401,0.4399,0.4361,0.4357,0.4381,0.4314,0.4341,0.4335,0.4318,0.4309,0.4303,0.4304,0.4411,0,0,0,0,0,0.4434,0.4416,0.4417,0.4384,0.4379,0.4385,0.4374,0.4383,0.4374,0.437,0.4367,0.4356,0.4336,0.4323,0.4304,0.4259,0.4257,0.4237,0.4231,0.4225,0.422,0.4195,0.4186,0.428,0.428,0.428,0,0,0.4408,0.4407,0.4394,0.4376,0.4371,0.435,0.4382,0.4358,0.4342,0.4366,0.4333,0.433,0.4319,0.4278,0.426,0.4274,0.4194,0.422,0.4216,0.4214,0.419,0.4181,0.4173,0.4278,0.4278,0.4279,0,0,0.435,0.4348,0.4319,0.4314,0.4306,0.431,0.4303,0.4298,0.4298,0.4266,0.4283,0.4263,0.4228,0.422,0.421,0.4149,0.4161,0.4142,0.4107,0.4082,0.4075,0.4068,0.4045,0.4037,0.4137,0.4137,0.4137,0,0.4318,0.429,0.4303,0.4278,0.4269,0.4291,0.4262,0.4255,0.4241,0.4233,0.4249,0.4206,0.42,0.4157,0.4142,0.4134,0.4125,0.4143,0.4075,0.4069,0.4063,0.4041,0.4032,0.4135,0.4135,0.4135,0.4135,0,0.425,0.423,0.4208,0.4196,0.4184,0.4157,0.4164,0.415,0.4159,0.4161,0.4126,0.412,0.41,0.4091,0.4099,0.4049,0.4058,0.4074,0.4101,0.4051,0.4031,0.4023,0.4131,0.4132,0.4133,0.4133,0,0,0.4168,0.4164,0.4156,0.415,0.4143,0.4127,0.41,0.4083,0.407,0.4059,0.4036,0.4006,0.4021,0.4011,0.4018,0.3996,0.3946,0.4015,0.4015,0.4002,0.389,0.3877,0.3868,0.3955,0.3954,0.3953,0.3891,0,0.411,0.4067,0.4077,0.4033,0.4014,0.4034,0.4011,0.4002,0.4003,0.3985,0.3985,0.3963,0.3985,0.3979,0.3959,0.3957,0.3924,0.3962,0.3932,0.3931,0.3934,0.3857,0.3844,0.3786,0.3883,0.3882,0.3881,0,0.4037,0.4026,0.398,0.3976,0.3968,0.3947,0.3932,0.3915,0.3905,0.3907,0.3895,0.3906,0.3877,0.3906,0.3865,0.3891,0.3879,0.3876,0.3874,0.3871,0.3902,0.3851,0.3768,0.3759,0.3868,0.3869,0.387,0,0.3981,0.3954,0.3923,0.3918,0.3912,0.3897,0.3893,0.3886,0.3874,0.386,0.3853,0.3834,0.3824,0.3809,0.3814,0.3834,0.3772,0.38,0.3771,0.377,0.3756,0.3757,0.3669,0.375,0.375,0.375,0.375,0,0.3915,0.3886,0.3898,0.3879,0.3846,0.3858,0.3825,0.3823,0.3816,0.3796,0.3812,0.3792,0.38,0.3779,0.3782,0.3748,0.3743,0.3742,0.3743,0.3741,0.3741,0.3733,0.3736,0.3748,0.3748,0.3749,0.3749,0,0.3847,0.3854,0.3822,0.3819,0.3818,0.3794,0.3791,0.3772,0.3774,0.3748,0.3742,0.3744,0.3721,0.3725,0.3698,0.3701,0.3657,0.3663,0.3661,0.3662,0.3632,0.3634,0.3535,0.3522,0.3612,0.3611,0.361,0,0.3804,0.3783,0.3779,0.3767,0.3763,0.3744,0.3733,0.3743,0.373,0.3718,0.37,0.3679,0.3662,0.3624,0.3622,0.3602,0.3607,0.3573,0.3604,0.3601,0.3605,0.3606,0.3603,0.3567,0.3566,0.3565,0.3565,0,0.3727,0.3732,0.3717,0.3702,0.3689,0.3677,0.3667,0.3656,0.3665,0.365,0.3628,0.3615,0.3589,0.3567,0.3548,0.3542,0.3554,0.3555,0.3547,0.3544,0.3543,0.3542,0.3644,0.3557,0.3558,0.3558,0.3559,0.3559,0.367,0.3652,0.3646,0.3628,0.3622,0.3612,0.3594,0.3594,0.3577,0.3558,0.3564,0.3538,0.3528,0.3504,0.3496,0.3474,0.3486,0.3475,0.3472,0.3468,0.3464,0.3547,0.3471,0.3471,0.3471,0.3471,0.3472,0,0.3593,0.3591,0.3574,0.356,0.3546,0.3561,0.355,0.3536,0.3514,0.3504,0.3488,0.3462,0.3441,0.3437,0.3416,0.3399,0.3404,0.3393,0.3394,0.3392,0.3455,0.3464,0.339,0.339,0.339,0.339,0.339,0.339,0.3551,0.3521,0.3525,0.349,0.3488,0.3464,0.3457,0.3447,0.3439,0.341,0.3393,0.3392,0.3384,0.3363,0.3343,0.3342,0.3333,0.332,0.3321,0.338,0.3388,0.3396,0.3404,0.3318,0.3318,0.326,0.3259,0.3259]}]]